Estación de Los Maquis

Ultimos registro cada 15 minutos 42
Estación Fecha / Hora Temperatura Humedad Lluvia Velocidad Dirección Radiación Presion
42 Los Maquis 09-05-2026 10:15 10,3 81 0 0,4 2 410 1022,9
41 Los Maquis 09-05-2026 10:00 9,7 82 0 0,4 308 378 1023,1
40 Los Maquis 09-05-2026 09:45 9,5 84 0 0,9 110 346 1023,1
39 Los Maquis 09-05-2026 09:30 8,6 88 0 0,4 354 308 1023
38 Los Maquis 09-05-2026 09:15 7,7 88 0 0 77 128 1023,3
37 Los Maquis 09-05-2026 09:00 7,1 88 0 0,4 77 116 1023,4
36 Los Maquis 09-05-2026 08:45 6,6 88 0 0,4 77 93 1023,4
35 Los Maquis 09-05-2026 08:30 6,3 91 0 0 91 63 1023,3
34 Los Maquis 09-05-2026 08:15 5,7 91 0 0 93 42 1023,2
33 Los Maquis 09-05-2026 08:00 5,3 90 0 0 88 33 1023
32 Los Maquis 09-05-2026 07:45 5,8 90 0 0,4 197 11 1023,2
31 Los Maquis 09-05-2026 07:30 6 91 0 0 90 5 1023,1
30 Los Maquis 09-05-2026 07:15 5,8 90 0 0 82 0 1023
29 Los Maquis 09-05-2026 07:00 5,6 91 0 0,4 102 0 1023,1
28 Los Maquis 09-05-2026 06:45 5,3 93 0 0,4 104 0 1023,2
27 Los Maquis 09-05-2026 06:30 5,1 93 0 0 94 0 1023,1
26 Los Maquis 09-05-2026 06:15 5 93 0 0 96 0 1023,1
25 Los Maquis 09-05-2026 06:00 5,1 91 0 0 92 0 1023,2
24 Los Maquis 09-05-2026 05:45 5,4 91 0 0 92 0 1023
23 Los Maquis 09-05-2026 05:30 5,8 90 0 0 106 0 1023,1
22 Los Maquis 09-05-2026 05:15 6,2 90 0 0 106 0 1022,9
21 Los Maquis 09-05-2026 05:00 6,3 89 0 0 96 0 1023,2
20 Los Maquis 09-05-2026 04:45 6,7 90 0 0,4 173 0 1023,1
19 Los Maquis 09-05-2026 04:30 6,8 91 0 0 87 0 1023,2
18 Los Maquis 09-05-2026 04:15 6,9 91 0 0 96 0 1023,2
17 Los Maquis 09-05-2026 04:00 7,2 91 0 0 104 0 1023,5
16 Los Maquis 09-05-2026 03:45 7,4 92 0 0 102 0 1023,5
15 Los Maquis 09-05-2026 03:30 7 92 0 0 105 0 1023,5
14 Los Maquis 09-05-2026 03:15 6,9 91 0 0 152 0 1023,7
13 Los Maquis 09-05-2026 03:00 7,1 92 0 0 180 0 1023,8
12 Los Maquis 09-05-2026 02:45 7,2 93 0 0 90 0 1023,8
11 Los Maquis 09-05-2026 02:30 7,1 93 0 0 86 0 1023,9
10 Los Maquis 09-05-2026 02:15 6,8 93 0 0,4 109 0 1023,9
9 Los Maquis 09-05-2026 02:00 6,9 92 0 0 105 0 1024,2
8 Los Maquis 09-05-2026 01:45 7,3 93 0 0 106 0 1024,2
7 Los Maquis 09-05-2026 01:30 7,2 95 0 0 82 0 1023,9
6 Los Maquis 09-05-2026 01:15 6,4 94 0 0 90 0 1024,1
5 Los Maquis 09-05-2026 01:00 6 93 0 0 84 0 1024
4 Los Maquis 09-05-2026 00:45 6,2 93 0,2 0 75 0 1024,1
3 Los Maquis 09-05-2026 00:30 6,1 92 0 0 83 0 1024
2 Los Maquis 09-05-2026 00:15 6,3 91 0 0 75 0 1023,9
1 Los Maquis 09-05-2026 00:00 6,9 92 0 0 347 0 1024,2